Terminal Aerodrome Forecast
Issued by NWS Atlanta, GA

Home | Current Version | Previous Version | Text Only | Print | Product List | Glossary On
Versions: 1 2 3 4 5 6 7 8 9 10 11 12 13 14 15 16 17 18 19 20 21 22 23 24 25 26 27 28 29 30 31 32 33 34 35 36 37 38 39
000
FTUS42 KFFC 230100 AAA
TAFATL
TAF AMD
KATL 230138Z 2302/2406 35007KT P6SM SKC
     FM230400 02008KT P6SM FEW250
     FM231400 07012G18KT P6SM FEW050
     FM240100 07010G16KT P6SM SKC=

USA.gov is the U.S. government's official web portal to all federal, state and local government web resources and services.